This is the latest recevied weather packets stored in our database for station/object VE3EP-1. If no packets are shown the sender has not sent any weather packets the latest 10 day(s).
| Time | Temp. | Humidity | Pressure | Rain* | Wind** | Luminosity | Snow |
|---|---|---|---|---|---|---|---|
| 1777770129 | 5° C | 75% | 1016.8 hPa | 0 mm | - | - | - |
| 1777769528 | 5° C | 75% | 1016.6 hPa | 0 mm | - | - | - |
| 1777767128 | 5° C | 78% | 1016.4 hPa | 0 mm | - | - | - |
| 1777766528 | 5° C | 79% | 1016.2 hPa | 0 mm | - | - | - |
| 1777765928 | 5° C | 79% | 1016.2 hPa | 0 mm | - | - | - |
| 1777765330 | 5° C | 80% | 1016.1 hPa | 0 mm | - | - | - |
| 1777763529 | 5.56° C | 76% | 1016.3 hPa | 0 mm | - | - | - |
| 1777762928 | 5.56° C | 74% | 1016.3 hPa | 0 mm | - | - | - |
| 1777762328 | 5.56° C | 73% | 1016.2 hPa | 0 mm | - | - | - |
| 1777761728 | 5.56° C | 73% | 1016.2 hPa | 0 mm | - | - | - |
| 1777761129 | 6.11° C | 72% | 1016.3 hPa | 0 mm | - | - | - |
| 1777760528 | 6.11° C | 71% | 1016.2 hPa | 0 mm | - | - | - |
| 1777758728 | 6.11° C | 73% | 1016.2 hPa | 0 mm | - | - | - |
| 1777758128 | 5.56° C | 76% | 1016.4 hPa | 0 mm | - | - | - |
| 1777757528 | 5° C | 76% | 1016.3 hPa | 0 mm | - | - | - |
| 1777756928 | 5.56° C | 80% | 1016.3 hPa | 0 mm | - | - | - |
| 1777755728 | 5.56° C | 76% | 1016.2 hPa | 0 mm | - | - | - |
| 1777755128 | 5.56° C | 78% | 1016.2 hPa | 0 mm | - | - | - |
| 1777753929 | 6.11° C | 74% | 1016.3 hPa | 0 mm | - | - | - |
| 1777753329 | 6.67° C | 74% | 1016.4 hPa | 0 mm | - | - | - |
| 1777752728 | 6.67° C | 71% | 1016.2 hPa | 0 mm | - | - | - |
| 1777752129 | 6.67° C | 71% | 1016.2 hPa | 0 mm | - | - | - |
| 1777751529 | 6.67° C | 75% | 1016.4 hPa | 0 mm | - | - | - |
| 1777750329 | 5.56° C | 78% | 1016.6 hPa | 0 mm | - | - | - |
| 1777749728 | 5.56° C | 78% | 1016.6 hPa | 0 mm | - | - | - |
* Rain latest hour (hover to see other rain measurements)
** Current wind speed in m/s (hover to see current wind gust speed)